Location: Apollinopolis Magna
(24.9792°N, 32.8772°E)
Time: 12:06:08
(UTC+00:00)

Cosmos 44 Rocket - Pass Details

Date: 02 March 2021
Orbit: 636 x 754 km, 65.1° (Epoch: 15 April)

Event Time Altitude Azimuth Distance (km) Brightness Sun altitude
Rises 17:46:43 0° 334° (NNW) 3,200 7.1 -26.9°
Reaches altitude 10° 17:49:07 10° 334° (NNW) 2,269 6.3 -27.5°
Enters shadow 17:53:24 61° 328° (NNW) 843 3.7 -28.4°
